{"data":{"norad_id":65554,"intl_designator":"2025-201E","name":"GEESAT-5 05","alt_names":[],"object_type":"PAYLOAD","status":"ACTIVE","operator":null,"country":"PRC","launch_date":"2025-09-08","launch_site_code":"YSLA","launch_vehicle":null,"mission":null,"orbit_class":"UNKNOWN","rcs_meters":null,"size_class":null,"mass_kg":null,"dimensions":null,"purposes":[],"wikipedia_slug":null,"has_3d_model":false,"image_url":null,"decayed_at":null,"tle_current":{"epoch":"2026-05-25T00:19:34.735008Z","epoch_age_seconds":70035,"freshness":"FRESH","line1":"1 65554U 25201E   26145.01359647  .00001181  00000+0  16710-3 0  9996","line2":"2 65554  49.9800 146.6434 0011006 192.1903 167.8770 14.84087492 38350","mean_motion":14.84087492,"eccentricity":0.0011006,"inclination_deg":49.98,"raan_deg":146.6434,"arg_perigee_deg":192.1903,"mean_anomaly_deg":167.877,"bstar":0.0001671,"rev_number":3835,"period_min":97.029319885946,"perigee_km":608.75328675712,"apogee_km":624.14977503132,"semimajor_km":6994.5885308942,"source":"CELESTRAK","updated_at":"2026-05-25T13:38:05.514806Z"}}}